Wind_Speed
20 22 23 24 25 25 26 26 26 27 27 28 29 30 30 31 32 34 36 38 40 42 44 46 47 48 49 49 48 48 47 46 45 43 41 40 38 37 35 34 33 31 30 30
20 21 21 22 22 22 23 23 24 25 25 26 26 27 29 30 33 35 37 39 41 43 45 46 46 47 49 50 51 51 50 49 49 47 46 44 43 40 38 37 36 35 35 35
18 18 19 20 21 21 21 21 22 23 24 24 25 26 28 30 32 34 37 39 42 43 45 46 48 48 49 50 51 51 51 51 50 49 48 46 44 43 42 42 41 40 39 39
16 17 19 20 20 21 21 21 22 23 23 24 25 27 27 29 31 33 36 38 40 41 43 45 46 47 48 48 48 48 48 50 50 50 48 47 46 44 44 44 43 43 42 41
16 18 19 20 20 20 20 21 21 21 21 23 24 25 26 27 29 32 34 36 37 38 39 40 41 42 42 42 42 43 44 45 46 47 47 46 45 44 43 43 42 42 42 42
16 18 18 18 18 18 18 18 18 19 20 21 22 23 23 24 26 27 29 31 32 33 33 32 33 32 32 33 32 34 36 38 40 41 42 43 43 42 42 41 40 40 39 39
15 16 16 16 15 14 14 14 16 17 16 17 19 20 21 22 23 24 24 25 26 26 24 23 22 21 21 22 22 24 26 29 31 34 36 38 39 39 38 38 37 37 36 36
12 13 13 12 12 13 14 15 15 15 15 15 16 17 19 20 21 22 22 22 21 21 20 18 15 13 12 13 15 17 19 21 23 26 28 30 33 34 35 35 34 33 33 33
11 11 11 11 11 12 13 13 13 13 13 14 14 16 18 19 20 20 21 20 19 19 18 15 13 10 8 8 9 10 13 15 18 20 23 25 27 29 30 31 31 31 31 32
11 12 12 11 12 12 13 14 13 12 12 13 14 16 17 17 17 18 19 20 20 21 19 14 12 12 9 7 7 7 9 10 13 15 17 19 22 24 25 27 28 29 29 30
13 14 14 14 14 14 14 14 14 13 13 14 15 15 17 17 18 19 20 20 20 21 21 19 16 14 14 12 10 9 9 7 6 7 8 10 13 16 18 19 21 23 24 26
14 14 15 15 15 15 15 15 15 15 15 15 15 16 17 17 19 20 21 21 21 21 21 22 20 20 19 18 15 13 14 12 8 6 4 2 3 5 7 10 13 15 17 19
14 15 16 16 16 17 17 17 16 16 16 16 16 17 17 18 19 20 21 20 21 21 22 23 23 22 22 22 21 20 18 17 16 14 12 10 8 5 2 2 4 7 10 12
15 16 16 17 18 18 17 17 17 17 18 18 17 17 18 18 19 20 20 20 21 21 22 22 22 22 22 22 22 22 21 21 20 18 15 13 12 10 9 7 5 3 4 5
16 16 16 17 18 18 17 17 18 18 18 19 19 19 19 19 19 19 20 20 20 21 22 23 23 23 24 23 23 23 22 22 21 20 19 17 15 13 11 9 8 7 7 7
15 16 16 17 18 18 18 18 18 18 18 19 19 19 19 19 19 19 20 21 21 21 22 23 23 23 24 24 23 23 22 21 20 20 19 18 17 15 14 12 11 10 9 9
15 15 16 16 17 18 18 18 18 17 18 18 19 19 19 19 19 19 19 20 21 21 21 22 23 22 23 23 22 22 21 21 20 20 20 19 18 17 16 15 14 13 12 11
14 15 15 16 17 17 18 19 18 17 17 17 18 18 18 18 18 18 18 19 20 20 20 20 21 21 21 21 21 21 20 20 20 21 21 21 20 19 18 17 17 16 15 14
12 13 13 14 16 17 18 19 18 17 17 17 17 18 17 17 17 17 17 17 18 18 18 19 19 19 20 20 20 20 20 21 21 21 22 22 22 21 21 20 20 19 18 17
9 10 11 13 14 16 17 18 18 17 16 17 16 16 16 15 16 16 16 16 16 16 17 17 18 19 19 20 20 20 20 21 21 21 22 22 23 22 22 22 22 21 21 21
7 8 10 11 12 14 15 16 17 17 16 16 15 15 15 14 14 14 14 14 14 15 15 16 18 18 19 19 20 20 20 21 21 22 22 22 23 23 23 23 23 23 24 24
7 8 8 9 10 11 13 15 16 16 16 15 14 14 14 13 12 12 12 12 12 13 14 15 16 17 18 18 19 20 20 20 21 21 22 23 23 24 24 24 24 24 25 25
8 8 8 8 9 9 11 12 13 14 15 15 14 13 13 12 11 9 10 10 11 12 13 14 15 16 16 17 18 19 20 20 20 21 21 22 23 24 24 25 25 25 25 26
10 9 9 8 8 8 9 9 11 12 13 14 14 13 12 12 10 9 8 9 9 10 11 12 13 14 15 16 17 18 19 20 20 21 21 22 23 23 24 25 25 25 26 26
12 11 10 9 8 8 8 8 8 9 10 12 13 13 12 11 11 9 7 7 7 8 9 10 11 13 13 14 15 17 17 18 19 20 21 21 22 22 23 24 25 25 26 26
14 13 12 11 9 8 8 7 7 7 8 9 10 11 12 12 11 10 8 7 7 7 8 8 9 10 11 12 13 15 16 17 18 19 20 21 21 22 22 23 24 25 26 26
Wind_Direction
271 276 280 284 287 288 289 289 289 288 288 288 288 289 289 288 286 284 282 280 278 275 273 271 268 267 265 262 259 256 255 253 251 250 249 249 250 251 253 256 258 259 261 265
278 283 287 290 291 291 290 289 289 289 290 290 290 291 291 290 289 288 286 283 280 278 276 274 271 269 267 263 260 257 255 254 253 252 251 251 252 254 255 257 259 260 261 263
285 288 291 292 293 293 292 294 295 296 296 294 294 294 294 294 293 292 289 286 283 281 279 276 273 271 269 265 262 261 258 255 254 254 253 253 254 254 255 255 257 258 260 261
292 294 295 297 298 299 298 299 299 298 296 294 295 296 297 297 296 296 294 292 289 286 284 280 275 273 271 268 265 263 261 259 256 254 254 254 254 253 254 254 255 257 259 260
301 304 305 305 305 304 302 301 299 298 296 297 299 299 301 301 301 301 301 299 297 294 292 288 282 277 272 270 268 265 263 261 258 256 255 255 254 254 254 254 255 256 257 258
309 311 312 311 309 307 305 302 301 301 300 301 303 303 305 307 308 308 309 308 306 303 300 296 289 282 275 271 267 265 262 259 257 255 254 255 255 255 254 255 255 256 256 257
321 323 323 322 321 319 316 312 311 310 308 309 310 310 314 317 322 322 321 320 319 315 312 307 300 290 280 271 267 265 262 258 256 254 253 253 254 255 255 255 256 256 256 256
342 340 340 338 339 336 330 324 320 319 319 322 323 323 325 329 334 337 338 340 340 337 331 329 323 314 298 283 272 270 266 261 259 258 256 254 253 254 254 254 255 255 255 255
3 360 358 357 354 347 344 340 333 329 331 333 336 337 338 340 344 349 353 356 357 355 350 346 346 345 334 318 297 286 278 271 266 263 260 259 257 256 256 256 256 256 255 255
19 17 16 14 9 3 360 358 353 349 350 351 350 350 353 358 1 4 7 9 13 14 13 15 16 13 19 12 351 326 311 292 283 274 268 265 262 260 259 259 258 257 258 258
31 29 27 24 20 17 14 12 10 7 6 8 8 8 11 17 20 20 19 20 21 21 24 30 32 34 36 34 31 27 16 357 327 301 283 272 269 263 259 261 261 261 260 260
37 37 35 31 26 21 19 17 15 16 19 20 21 22 23 24 26 26 25 27 28 31 34 37 40 43 46 48 52 54 49 43 39 35 29 345 304 277 262 259 259 261 262 262
44 43 40 35 29 26 25 24 23 23 26 28 28 27 28 28 28 28 29 31 35 38 41 43 45 46 49 51 52 54 56 57 57 58 60 63 61 56 41 308 273 269 270 268
46 45 42 37 33 30 28 27 27 28 30 30 30 29 30 30 30 31 33 36 41 44 46 48 49 50 52 53 53 54 55 56 56 57 57 56 55 53 49 43 31 360 317 296
44 45 43 39 34 30 29 29 28 30 32 32 32 33 35 35 34 34 37 40 45 48 51 53 54 56 56 56 55 55 54 53 51 50 48 46 45 44 40 34 25 14 357 339
40 41 41 39 35 32 30 30 30 32 33 33 34 35 36 37 38 40 43 46 50 54 55 55 55 56 55 53 52 51 49 48 46 44 42 39 37 35 31 26 20 10 0 350
37 37 37 37 34 32 32 32 32 33 34 36 37 37 38 40 43 45 49 51 54 57 57 56 56 54 52 50 48 45 43 42 41 39 36 33 31 28 26 23 18 12 5 358
32 34 34 34 33 33 31 33 34 35 37 38 40 40 40 43 45 48 52 53 55 56 55 54 53 49 46 43 41 40 39 38 37 36 35 33 32 31 29 26 22 19 13 5
26 27 28 30 31 31 31 31 32 33 36 37 39 41 43 45 47 50 53 55 56 54 53 51 47 44 41 39 38 37 37 36 36 36 36 36 36 34 32 30 27 23 18 12
14 17 18 21 24 27 27 28 30 31 34 35 38 41 44 45 47 51 54 54 52 50 48 45 42 39 39 39 38 37 37 37 36 35 35 35 34 33 31 31 29 27 24 20
350 1 6 10 16 21 23 24 26 29 29 33 38 40 42 44 47 51 53 51 48 46 44 40 38 38 38 39 38 36 36 36 35 34 35 34 34 33 32 32 30 28 25 23
324 337 348 356 3 12 15 19 22 24 27 30 34 37 39 42 45 50 51 49 44 41 38 36 36 36 37 38 37 36 36 36 34 34 35 34 33 33 32 31 29 28 27 25
299 314 325 335 348 357 3 11 16 20 23 25 28 32 35 37 39 44 45 45 41 38 35 34 34 33 35 36 37 36 35 34 34 32 32 32 31 31 30 30 29 28 27 26
280 291 303 313 321 332 344 355 5 11 16 19 22 26 30 32 34 38 38 38 37 34 32 31 31 31 33 35 34 34 33 33 33 32 30 30 30 29 29 29 29 28 28 28
272 278 286 295 303 312 324 334 345 356 4 11 16 21 24 26 28 31 33 31 28 27 27 28 28 29 31 31 32 32 32 31 31 30 28 27 27 27 27 28 28 28 29 29
267 272 277 282 287 295 305 314 324 337 349 357 5 13 18 21 22 24 26 23 21 19 18 19 21 23 25 26 27 30 30 30 29 28 28 27 27 27 27 27 27 28 29 30
Height
5894 5894 5892 5891 5889 5887 5885 5883 5880 5878 5876 5874 5872 5870 5868 5866 5864 5862 5859 5857 5855 5853 5851 5849 5848 5847 5846 5846 5847 5848 5849 5851 5854 5856 5858 5859 5861 5862 5864 5865 5866 5867 5868 5869
5892 5890 5888 5887 5885 5882 5880 5878 5875 5873 5871 5869 5866 5864 5862 5859 5856 5853 5850 5847 5844 5841 5839 5837 5835 5833 5832 5832 5833 5834 5836 5838 5841 5844 5847 5850 5852 5854 5856 5857 5858 5859 5860 5861
5889 5887 5885 5883 5880 5877 5875 5873 5870 5867 5865 5862 5861 5858 5855 5852 5848 5845 5841 5837 5833 5830 5827 5824 5822 5820 5819 5818 5819 5821 5823 5826 5829 5832 5835 5839 5842 5845 5847 5849 5850 5852 5853 5854
5885 5883 5881 5879 5876 5872 5870 5868 5865 5862 5860 5857 5856 5852 5849 5845 5841 5837 5831 5827 5822 5818 5814 5811 5808 5806 5805 5805 5805 5807 5810 5812 5816 5820 5824 5827 5831 5835 5837 5839 5841 5843 5844 5846
5882 5879 5877 5874 5871 5868 5865 5863 5860 5857 5855 5852 5849 5846 5844 5839 5835 5829 5823 5818 5813 5808 5803 5799 5795 5793 5793 5793 5794 5795 5798 5800 5804 5808 5812 5816 5820 5824 5827 5829 5831 5834 5835 5837
5879 5876 5873 5870 5867 5864 5861 5859 5856 5853 5851 5848 5845 5842 5838 5834 5829 5824 5818 5812 5806 5800 5794 5789 5785 5782 5781 5782 5783 5785 5787 5789 5793 5797 5801 5805 5809 5813 5816 5819 5822 5824 5826 5828
5876 5873 5870 5867 5864 5861 5858 5856 5853 5850 5847 5844 5841 5837 5834 5829 5824 5819 5814 5807 5801 5794 5789 5783 5779 5775 5774 5774 5775 5777 5778 5780 5783 5787 5791 5795 5799 5803 5806 5809 5812 5815 5817 5820
5874 5872 5869 5865 5862 5859 5856 5854 5851 5848 5845 5842 5838 5834 5831 5826 5821 5816 5810 5804 5798 5792 5786 5780 5776 5772 5771 5770 5771 5772 5773 5775 5777 5780 5783 5786 5790 5793 5797 5800 5803 5806 5809 5811
5874 5872 5868 5865 5862 5859 5855 5852 5849 5846 5843 5840 5837 5833 5829 5824 5819 5814 5809 5803 5797 5792 5786 5780 5776 5773 5771 5770 5769 5769 5770 5771 5773 5774 5777 5779 5782 5785 5788 5792 5795 5798 5801 5803
5875 5872 5868 5865 5862 5859 5856 5852 5849 5845 5842 5839 5836 5832 5829 5823 5819 5814 5809 5804 5798 5793 5787 5781 5778 5775 5772 5771 5770 5769 5769 5769 5769 5770 5772 5773 5776 5779 5781 5784 5787 5790 5792 5794
5876 5873 5870 5866 5862 5859 5856 5853 5849 5845 5842 5839 5835 5834 5828 5824 5820 5815 5810 5805 5800 5795 5790 5785 5781 5778 5775 5773 5771 5770 5769 5768 5768 5768 5769 5770 5772 5773 5775 5778 5780 5782 5784 5786
5877 5874 5870 5868 5864 5861 5857 5853 5850 5847 5843 5839 5836 5836 5829 5825 5821 5817 5812 5808 5803 5799 5794 5790 5785 5782 5780 5777 5775 5773 5772 5770 5769 5769 5768 5769 5770 5771 5772 5773 5775 5777 5778 5779
5879 5876 5873 5870 5868 5864 5859 5855 5851 5848 5844 5840 5837 5837 5830 5826 5823 5819 5815 5811 5807 5802 5798 5794 5791 5788 5785 5783 5780 5778 5776 5774 5773 5772 5771 5771 5771 5771 5771 5771 5772 5772 5773 5774
5881 5878 5875 5873 5869 5865 5861 5857 5854 5850 5846 5843 5839 5836 5832 5829 5825 5821 5818 5814 5810 5806 5803 5799 5796 5793 5791 5788 5786 5784 5782 5780 5778 5776 5775 5774 5773 5772 5772 5771 5771 5771 5771 5771
5883 5880 5877 5874 5870 5867 5864 5860 5856 5852 5849 5845 5842 5838 5835 5831 5828 5825 5821 5818 5814 5811 5807 5805 5802 5799 5796 5794 5792 5790 5787 5785 5783 5781 5779 5777 5776 5774 5773 5772 5771 5770 5770 5769
5886 5883 5880 5877 5873 5870 5866 5863 5859 5855 5851 5848 5844 5841 5837 5834 5831 5828 5824 5821 5818 5815 5813 5810 5807 5805 5802 5800 5797 5795 5793 5790 5788 5785 5783 5781 5779 5777 5775 5773 5772 5770 5769 5767
5888 5885 5882 5879 5876 5873 5870 5866 5862 5858 5855 5851 5847 5845 5840 5837 5834 5831 5828 5826 5823 5820 5818 5815 5813 5810 5808 5805 5803 5800 5798 5795 5792 5789 5786 5784 5781 5779 5776 5774 5772 5770 5768 5766
5890 5887 5884 5882 5879 5876 5875 5868 5865 5861 5857 5854 5850 5847 5844 5841 5838 5835 5832 5830 5828 5825 5823 5820 5818 5816 5813 5810 5808 5805 5802 5799 5796 5793 5790 5786 5784 5781 5778 5776 5773 5770 5768 5765
5891 5889 5887 5884 5881 5878 5875 5871 5867 5864 5861 5857 5853 5850 5847 5844 5841 5839 5837 5834 5832 5830 5828 5825 5823 5820 5817 5814 5812 5809 5806 5803 5799 5796 5793 5790 5786 5783 5781 5777 5774 5771 5768 5765
5893 5891 5889 5886 5883 5880 5879 5874 5870 5867 5863 5860 5856 5853 5850 5848 5845 5844 5841 5838 5836 5834 5832 5830 5827 5824 5821 5818 5816 5813 5810 5806 5803 5800 5796 5793 5790 5786 5783 5780 5776 5773 5769 5765
5893 5891 5889 5887 5884 5882 5880 5876 5872 5870 5868 5863 5859 5856 5853 5851 5849 5847 5844 5842 5840 5838 5835 5833 5831 5828 5825 5822 5820 5817 5814 5810 5807 5803 5800 5797 5793 5789 5786 5783 5779 5775 5771 5766
5892 5891 5889 5887 5885 5885 5881 5877 5875 5873 5868 5865 5862 5859 5856 5854 5851 5849 5847 5845 5843 5841 5839 5836 5834 5831 5829 5826 5823 5820 5817 5814 5811 5807 5804 5800 5797 5793 5789 5786 5781 5777 5773 5768
5891 5890 5888 5888 5887 5884 5881 5879 5877 5874 5870 5867 5864 5861 5859 5856 5853 5851 5849 5847 5845 5843 5841 5839 5837 5834 5832 5829 5827 5824 5821 5817 5814 5811 5808 5804 5800 5797 5793 5789 5785 5780 5775 5770
5889 5888 5887 5886 5885 5883 5881 5879 5877 5875 5872 5869 5866 5863 5860 5858 5855 5853 5851 5849 5847 5845 5844 5842 5839 5837 5835 5832 5830 5827 5824 5821 5818 5814 5811 5808 5804 5800 5796 5792 5788 5783 5779 5773
5886 5885 5884 5883 5883 5881 5880 5878 5876 5875 5872 5870 5867 5865 5862 5859 5857 5854 5852 5851 5849 5847 5845 5843 5841 5839 5837 5835 5832 5830 5827 5824 5821 5818 5814 5811 5807 5804 5800 5796 5791 5787 5782 5777
5883 5882 5882 5881 5881 5879 5878 5877 5875 5874 5872 5870 5868 5866 5863 5861 5858 5856 5854 5852 5850 5848 5846 5845 5843 5841 5839 5837 5834 5832 5829 5827 5824 5820 5817 5814 5810 5807 5803 5799 5794 5790 5785 5781